Lid_Strength_Index
12 13 16 16 15 15 15 15 15 13 14 15 14 13 12 10 12 11 11 11 11 11 10 10 11 11 11 12 13 13 14 14 14 14 14 14 14 13 13 13 13 13 13 13
13 16 16 15 15 15 15 15 15 13 14 14 14 14 12 11 11 11 11 11 11 11 10 10 11 11 11 11 11 11 12 12 12 11 11 11 11 11 11 11 11 11 12 12
15 16 16 16 16 16 16 16 17 17 14 13 15 12 13 12 11 10 10 10 10 11 12 11 11 11 10 10 9 9 9 9 10 10 10 10 10 10 10 10 10 9 9 9
16 17 17 17 17 16 17 16 16 16 16 16 14 15 11 13 13 11 10 10 11 11 11 11 12 11 11 11 9 9 9 9 9 9 10 11 11 12 11 10 9 9 9 9
18 18 18 17 18 17 17 16 16 16 16 17 16 16 11 15 14 13 12 9 9 10 11 11 12 11 10 10 10 10 10 10 10 10 10 10 10 10 10 10 9 9 9 9
18 18 18 18 17 17 16 16 16 16 17 19 18 17 13 12 13 12 10 11 9 9 10 11 11 11 11 10 10 10 10 10 10 10 10 10 10 10 10 10 10 10 10 10
19 19 18 18 18 16 16 16 19 19 20 17 19 18 14 11 11 12 12 11 10 9 10 11 11 11 11 11 10 10 10 11 10 10 10 10 10 10 10 10 10 10 10 10
17 18 19 19 19 19 18 18 17 20 18 18 21 19 14 12 12 12 11 11 10 10 10 11 11 11 11 11 10 10 11 11 11 10 10 10 10 10 10 10 10 10 10 10
17 18 20 20 19 19 18 18 19 20 27 22 17 16 14 12 13 13 12 12 12 11 11 10 11 11 11 11 11 11 11 11 11 11 11 11 10 10 10 10 10 10 9 10
16 18 20 20 19 19 19 19 19 18 20 20 17 18 17 14 13 13 12 12 12 11 11 11 11 11 11 11 11 11 11 11 11 11 11 11 11 10 10 10 10 10 10 10
16 17 19 20 20 18 21 20 20 19 19 19 19 16 13 14 13 13 12 11 11 11 11 10 10 10 10 11 11 11 11 11 11 11 11 11 11 11 11 11 11 10 10 10
16 15 17 17 19 19 18 18 18 17 19 20 21 20 13 13 14 15 13 12 11 10 10 10 10 10 11 11 11 11 11 12 12 11 11 11 11 11 11 11 11 11 11 10
16 15 18 17 20 20 21 20 19 20 18 20 20 18 15 15 15 15 14 13 12 11 11 10 10 10 10 11 11 11 11 11 12 12 12 12 12 12 12 12 11 11 11 11
16 16 17 19 17 16 19 20 20 19 20 19 19 18 15 14 13 13 13 13 12 11 11 11 10 10 10 10 11 11 11 11 11 12 12 12 12 12 12 12 12 11 11 12
16 18 17 17 16 17 18 18 18 20 20 21 19 18 15 14 13 13 12 12 13 12 12 12 11 11 10 10 10 11 11 11 11 12 12 12 12 12 12 12 12 12 12 12
18 18 19 20 17 16 19 17 17 17 17 17 18 18 14 13 13 13 13 13 13 13 13 12 11 12 12 12 11 11 11 11 11 12 12 12 12 12 12 13 13 13 13 12
18 17 18 21 19 20 21 18 17 17 15 15 17 15 12 13 13 13 13 13 13 13 13 13 12 11 12 11 11 11 11 11 11 12 12 12 12 12 13 13 13 13 13 12
15 17 17 19 18 23 16 13 13 15 15 13 13 13 12 12 11 11 12 13 13 13 13 12 12 11 11 10 10 10 11 11 12 12 12 12 12 13 13 13 14 13 13 13
13 14 16 18 18 16 16 13 13 14 15 11 12 12 11 10 13 12 11 11 11 12 12 11 11 11 11 10 10 11 11 12 12 12 12 12 13 13 13 14 14 14 14 14
18 16 17 17 19 21 15 12 13 12 18 10 10 11 11 11 14 12 9 10 10 10 11 11 11 11 11 11 11 12 13 13 13 12 12 12 13 13 13 13 14 14 14 14
18 18 19 18 18 16 12 11 9 16 16 10 9 10 10 12 11 10 9 9 8 9 10 10 11 11 11 11 11 13 13 13 12 13 12 13 13 13 13 13 14 14 15 16
16 17 17 16 19 20 10 11 13 10 9 9 10 10 9 8 8 8 8 8 7 8 8 8 9 9 9 11 11 12 13 11 12 12 12 12 12 12 13 13 15 15 16 17
18 15 16 15 15 10 9 10 8 7 8 8 8 8 8 8 8 7 7 7 6 7 7 7 8 8 9 9 10 11 11 11 12 13 13 13 13 13 13 14 16 16 17 18
15 12 15 14 12 11 9 8 8 7 7 7 6 6 7 7 6 6 5 5 5 6 6 7 7 7 7 8 8 7 8 11 11 12 13 13 14 14 14 15 15 16 17 18
15 14 14 14 12 10 10 9 8 8 7 7 7 6 6 5 6 6 5 5 5 5 5 6 6 6 7 6 6 6 8 10 11 11 13 14 14 15 16 15 16 16 16 16
13 14 14 15 12 10 10 8 7 8 8 6 6 5 5 5 5 5 5 4 5 6 5 5 5 6 6 6 5 5 7 10 10 10 12 12 14 16 17 17 18 16 15 15